Location: St. Louis
(38.6270°N, 90.1994°W)
Time: 20:10:39
(UTC-05:00)

deb Delta - Pass Details

Date: 04 July 2022
Orbit: 1084 x 1202 km, 99.8° (Epoch: 13 August)

Event Time Altitude Azimuth Distance (km) Brightness Sun altitude
Exits shadow 02:28:53 50° 216° (SW) 1,497 ? -25.5°
Maximum altitude 02:30:22 58° 258° (WSW) 1,375 ? -25.4°
Drops below altitude 10° 02:37:26 10° 337° (NNW) 3,127 ? -24.8°
Sets 02:40:06 0° 342° (NNW) 4,083 ? -24.6°
